[[{"header":{"parameterUnit":"m.s-1","parameterCategory":1,"la1":30.2991,"la2":30.254,"lo1":-89.0895,"lo2":-89.0444,"dy":0.0017,"dx":0.0017,"nx":28,"ny":28,"refTime":"2024-07-29T21:00:00:Z","depth":0,"parameterNumber":2,"parameterNumberName":"U-component_of_WINDS"},"data":[0,0,0,0,0,0,0,0,0,0,0,0,0,0,0,0,0,0,0,0,0,0,0,0,0,0,0,0,0,0,0,0,0,0,0,0,0,0,0,0,0,0,0,0,0,0,0,0,0,0,0,0,0,0,0,0,0,0,2.8886,2.8886,0,2.8948,2.8949,2.895,2.8933,2.8932,2.8931,2.8929,2.8999,2.9002,2.9005,0,0,0,0,0,0,0,0,0,0,0,0,0,2.8759,2.8761,2.8886,2.8886,2.8887,2.8948,2.8949,2.895,2.8933,2.8932,2.893,2.8929,2.8998,2.9002,2.9005,0,0,0,0,0,0,0,0,0,0,0,0,0,2.8817,2.8762,2.8885,2.8886,2.8887,2.8948,2.8949,2.895,2.8934,2.8932,2.893,2.8928,2.8997,2.9001,2.9006,2.9072,0,0,2.902,2.9022,0,0,0,0,0,0,0,0,2.8814,2.8822,2.8885,2.8886,2.8887,2.8931,2.893,2.8991,2.8934,2.8916,2.8929,2.8927,2.8978,2.8984,2.9,2.9075,2.9078,2.902,2.9023,2.9025,2.9026,0,0,0,0,0,0,0,2.881,2.8819,2.891,2.8886,2.8887,2.8886,2.8892,2.8941,2.8957,2.8917,2.8916,2.8924,2.8979,2.8996,2.9002,2.9079,2.902,2.9024,2.9027,2.9029,2.9215,2.9218,0,0,0,0,0,0,2.8804,2.8816,2.8908,2.8912,2.8845,2.8889,2.8896,2.8919,2.8957,2.896,2.8925,2.8923,2.8989,2.8997,2.9004,2.9087,2.9025,2.9029,2.9032,2.9213,2.9216,2.9218,0,0,0,0,0,0,2.8801,2.8812,2.8906,2.8864,2.8875,2.8894,2.8919,2.8921,2.8938,2.8962,2.8966,2.894,2.8988,2.8998,2.9056,2.9089,2.9031,2.9035,2.9211,2.9214,2.9217,2.925,0,0,0,0,0,0,2.8798,2.8812,2.8835,2.8864,2.8878,2.8954,2.8921,2.8924,2.8946,2.8943,2.8977,2.8981,2.8987,2.9049,2.906,2.9094,2.9039,2.9208,2.9212,2.9216,2.9246,2.9254,2.9261,0,0,0,0,0,2.8793,2.8842,2.8836,2.8848,2.8907,2.8956,2.8964,2.8969,2.8948,2.8974,2.8989,2.898,2.9083,2.9055,2.9068,2.9103,2.9206,2.9211,2.9216,2.9243,2.9253,2.9261,0,0,0,0,0,0,2.8818,2.8846,2.884,2.8899,2.8925,2.8953,2.8985,2.8978,2.9012,2.9008,2.9015,2.9023,2.9082,2.9098,2.9067,2.9171,2.9142,2.915,2.9158,2.9168,2.9175,2.9171,2.9043,0,0,0,0,0,2.883,2.8865,2.8889,2.8939,2.8952,2.8966,2.8988,2.8989,2.9017,2.9029,2.9049,2.9078,2.9118,2.9143,2.918,2.9248,2.9257,2.9279,2.9287,2.9293,2.93,2.9341,2.9351,2.9235,2.9235,2.9235,0,0,2.8855,2.8875,2.8897,2.8944,2.8965,2.9004,2.8976,2.9017,2.9048,2.9036,2.9092,2.9108,2.9141,2.9205,2.9234,2.922,2.9334,2.9299,2.9304,2.9308,2.9347,2.9358,2.9368,2.9238,2.9238,2.9237,0,0,2.8923,2.894,2.8985,2.9006,2.9037,2.9046,2.9057,2.9087,2.9097,2.9152,2.9145,2.9182,2.9249,2.9274,2.9295,2.9375,2.9369,2.9387,2.9426,2.9466,2.9475,2.9483,2.9514,2.9525,2.9394,2.9394,2.9394,0,2.8951,2.9007,2.9009,2.9053,2.9075,2.9065,2.9113,2.9134,2.9176,2.9193,2.9176,2.9262,2.9283,2.9354,2.9374,2.9391,2.9406,2.9383,2.9473,2.9481,2.9489,2.9519,2.953,2.9396,2.9396,2.9395,2.9395,0,2.9043,2.9082,2.9116,2.9156,2.9182,2.9227,2.9238,2.9265,2.9265,2.9277,2.9336,2.9362,2.9405,2.9422,2.9422,2.9495,2.9486,2.9471,2.9442,2.9502,2.9531,2.9542,2.9399,2.9398,2.9398,2.9397,0,0,2.9127,2.9168,2.9181,2.92,2.9234,2.9266,2.9313,2.9354,2.9378,2.9408,2.9449,2.9507,2.9495,2.9519,2.9522,2.9557,2.9622,2.9538,2.9539,2.9555,2.9707,2.9719,2.9732,2.9617,2.9619,2.9621,2.9705,0,2.9199,2.9278,2.9283,2.9356,2.9394,2.9386,2.9427,2.9454,2.9467,2.9504,2.9519,2.9561,2.954,2.9555,2.9588,2.9607,2.9653,2.96,2.9659,2.9661,2.9652,2.9746,2.9759,2.9836,2.9716,2.9717,2.9719,0,2.9294,2.9326,2.9403,2.9434,2.945,2.9487,2.9527,2.9561,2.9593,2.96,2.9628,2.9627,2.9678,2.9646,2.9718,2.9683,2.9707,2.972,2.9723,2.973,2.9695,2.9759,2.9861,2.9874,2.9736,2.9734,2.9733,0,2.9351,2.9413,2.9468,2.9485,2.9522,2.9548,2.9565,2.9595,2.9621,2.9656,2.9674,2.9715,2.9738,2.9772,2.9784,2.9759,2.9856,2.9825,2.9867,2.9867,2.9889,2.9888,2.9999,2.9901,2.9901,2.99,2.99,0,2.9432,2.948,2.9495,2.9529,2.9584,2.9589,2.9644,2.966,2.9687,2.9726,2.9722,2.9759,2.9771,2.9811,2.9821,2.9881,2.9891,2.9901,2.9903,2.9902,2.9902,2.992,2.9916,2.9904,2.9903,2.9902,2.9902,0,2.9506,2.9517,2.9577,2.9607,2.9616,2.9655,2.9683,2.9717,2.9729,2.9779,2.9792,2.9812,2.986,2.9874,2.9932,2.9938,3.0009,3.0006,2.9998,2.9999,3.0041,3.0038,3.017,3.0189,3.0076,3.0077,3.0078,0,2.9558,2.9595,2.9629,2.9654,2.9672,2.9713,2.9739,2.9747,2.9774,2.9815,2.9845,2.9892,2.9929,3.0006,3.0028,3.0073,3.0072,3.0115,3.0079,3.0078,3.0076,3.0075,3.008,3.0123,3.0124,3.0125,3.0126,0,2.9651,2.9655,2.9691,2.9731,2.9762,2.9794,2.9825,2.9846,2.9859,2.9891,2.9939,2.9968,3.0027,3.0074,3.012,3.0141,3.0137,3.0137,3.0149,3.015,3.0145,3.0151,3.002,3.0134,3.0133,3.0133,3.0132,3.0132,2.9717,2.975,2.978,2.9822,2.9846,2.9876,2.991,2.9927,2.9966,3.0014,3.0016,3.0069,3.0103,3.0164,3.0187,3.023,3.0218,3.0236,3.0241,3.0245,3.025,3.0136,3.0239,3.0238,3.0238,3.0238,3.0238,0,2.9812,2.9831,2.9869,2.9912,2.9946,2.9937,2.9971,3.0001,3.0047,3.0078,3.0115,3.0172,3.0219,3.0244,3.0292,3.0322,3.0322,3.0334,3.0333,3.0339,3.0257,3.0242,3.0334,3.0334,3.0334,3.0334,3.0334,3.0334,2.9865,2.9922,2.993,3.0,3.0019,3.007,3.0091,3.0119,3.0144,3.0207,3.0245,3.0261,3.0291,3.0341,3.0384,3.0391,3.041,3.0425,3.043,3.0354,3.0344,3.0335,3.0321,3.0428,3.0428,3.0509,3.051,3.051]},{"header":{"parameterUnit":"m.s-1","parameterCategory":1,"la1":30.2991,"la2":30.254,"lo1":-89.0895,"lo2":-89.0444,"dy":0.0017,"dx":0.0017,"nx":28,"ny":28,"refTime":"2024-07-29T21:00:00:Z","depth":0,"parameterNumber":3,"parameterNumberName":"V-component_of_WINDS"},"data":[0,0,0,0,0,0,0,0,0,0,0,0,0,0,0,0,0,0,0,0,0,0,0,0,0,0,0,0,0,0,0,0,0,0,0,0,0,0,0,0,0,0,0,0,0,0,0,0,0,0,0,0,0,0,0,0,0,0,0.4606,0.4607,0,0.4687,0.4687,0.4688,0.472,0.472,0.472,0.472,0.48,0.4802,0.4805,0,0,0,0,0,0,0,0,0,0,0,0,0,0.4476,0.4478,0.4606,0.4607,0.4608,0.4686,0.4688,0.4689,0.4721,0.472,0.472,0.472,0.4799,0.4802,0.4805,0,0,0,0,0,0,0,0,0,0,0,0,0,0.4542,0.4479,0.4606,0.4634,0.4637,0.4686,0.4688,0.4689,0.4721,0.472,0.472,0.472,0.4798,0.4802,0.4805,0.4832,0,0,0.4816,0.4817,0,0,0,0,0,0,0,0,0.4538,0.4547,0.4629,0.4632,0.4636,0.4693,0.4671,0.4737,0.4721,0.4689,0.472,0.472,0.4765,0.4771,0.4787,0.4836,0.484,0.4816,0.4818,0.482,0.4821,0,0,0,0,0,0,0,0.4534,0.4543,0.4638,0.463,0.4634,0.464,0.465,0.4684,0.4727,0.4692,0.4694,0.4703,0.4766,0.4783,0.4789,0.4841,0.4816,0.4819,0.4821,0.4823,0.4913,0.4913,0,0,0,0,0,0,0.4525,0.4539,0.4635,0.464,0.4585,0.4643,0.4653,0.4675,0.4727,0.4735,0.4703,0.4704,0.4777,0.4785,0.4792,0.4825,0.482,0.4823,0.4825,0.4913,0.4913,0.4913,0,0,0,0,0,0,0.4522,0.4533,0.4632,0.4591,0.4604,0.4646,0.467,0.4677,0.4694,0.4736,0.4744,0.4713,0.4777,0.4787,0.4821,0.4828,0.4825,0.4828,0.4912,0.4913,0.4913,0.4893,0,0,0,0,0,0,0.4518,0.4532,0.4544,0.4591,0.4606,0.4662,0.467,0.4679,0.47,0.4702,0.4747,0.4754,0.4778,0.4816,0.4825,0.4833,0.483,0.4912,0.4912,0.4913,0.4893,0.4893,0.4892,0,0,0,0,0,0.4513,0.4536,0.4545,0.4556,0.4622,0.4663,0.4671,0.4699,0.47,0.4712,0.4738,0.4752,0.4826,0.4819,0.483,0.4839,0.4912,0.4912,0.4913,0.4893,0.4893,0.4892,0,0,0,0,0,0,0.4489,0.4542,0.4553,0.4591,0.4622,0.4668,0.4684,0.4698,0.4729,0.4729,0.4761,0.4771,0.4803,0.4824,0.4816,0.4866,0.4869,0.4872,0.4851,0.4851,0.485,0.4844,0.4833,0,0,0,0,0,0.4488,0.4518,0.4562,0.4591,0.4606,0.4642,0.4661,0.4679,0.4712,0.4725,0.4755,0.4785,0.4815,0.4834,0.4864,0.4896,0.4905,0.4907,0.4906,0.4906,0.4908,0.4923,0.4924,0.4916,0.4916,0.4916,0,0,0.4487,0.4519,0.4536,0.4587,0.4613,0.4641,0.4653,0.4683,0.4704,0.473,0.4764,0.4786,0.4822,0.4855,0.4871,0.4874,0.4911,0.4906,0.4906,0.4908,0.4924,0.4925,0.4925,0.4916,0.4916,0.4916,0,0,0.4498,0.4527,0.4553,0.4578,0.4617,0.464,0.4646,0.4689,0.4705,0.474,0.4759,0.4783,0.4834,0.4858,0.4877,0.4893,0.4906,0.4901,0.4899,0.4914,0.4915,0.4915,0.4919,0.4921,0.4903,0.4903,0.4903,0,0.4492,0.4536,0.4565,0.4593,0.4614,0.4638,0.4663,0.4686,0.4732,0.4745,0.4748,0.481,0.4836,0.4873,0.4877,0.4892,0.4898,0.4897,0.4912,0.4913,0.4914,0.4918,0.492,0.4902,0.4902,0.4903,0.4903,0,0.4525,0.4555,0.4571,0.4615,0.4637,0.4664,0.4694,0.4713,0.4728,0.475,0.4783,0.4815,0.485,0.486,0.4876,0.4898,0.4899,0.4906,0.4911,0.4914,0.4918,0.492,0.4901,0.4901,0.4902,0.4902,0,0,0.4526,0.4583,0.4588,0.4607,0.465,0.4673,0.4699,0.4733,0.4748,0.4778,0.4799,0.484,0.4846,0.4867,0.4885,0.4898,0.4906,0.4904,0.4905,0.4902,0.493,0.4924,0.4926,0.4914,0.4915,0.4915,0.4927,0,0.4543,0.4592,0.4617,0.4654,0.4681,0.4702,0.4724,0.4751,0.4772,0.4796,0.4817,0.4845,0.4852,0.4865,0.4878,0.4902,0.4912,0.4902,0.4933,0.4934,0.4924,0.4928,0.4923,0.4932,0.4929,0.4929,0.4929,0,0.457,0.4599,0.4639,0.4676,0.4688,0.4708,0.4739,0.4763,0.4793,0.4806,0.4828,0.4845,0.487,0.4872,0.4907,0.4899,0.4913,0.4926,0.4927,0.4931,0.4932,0.4932,0.4936,0.4937,0.4933,0.4932,0.4932,0,0.4565,0.4614,0.4644,0.4659,0.4703,0.4716,0.4735,0.4765,0.4783,0.481,0.4821,0.4851,0.4867,0.4888,0.4911,0.4911,0.4943,0.4947,0.4953,0.4952,0.496,0.4959,0.4966,0.4969,0.4969,0.4969,0.4969,0,0.4581,0.4604,0.4642,0.466,0.4686,0.4712,0.4736,0.4757,0.4782,0.4803,0.4823,0.4842,0.4871,0.4893,0.4911,0.4936,0.4943,0.4953,0.4958,0.4952,0.495,0.4962,0.4961,0.4969,0.4969,0.4969,0.4969,0,0.4581,0.4607,0.464,0.4678,0.4688,0.4705,0.4737,0.4754,0.4774,0.48,0.4807,0.4838,0.4864,0.4889,0.4925,0.4937,0.4961,0.4967,0.4951,0.4953,0.4958,0.4957,0.4973,0.4975,0.4976,0.4976,0.4976,0,0.4589,0.4608,0.4647,0.4662,0.468,0.4705,0.4723,0.4748,0.4766,0.4799,0.4812,0.484,0.4863,0.4904,0.4929,0.4955,0.4962,0.4965,0.4966,0.4958,0.496,0.4959,0.496,0.4965,0.4964,0.4964,0.4964,0,0.4601,0.4612,0.4638,0.4667,0.4687,0.4711,0.4736,0.4747,0.4777,0.4795,0.4822,0.484,0.4875,0.4902,0.493,0.4947,0.496,0.4963,0.4966,0.496,0.4949,0.4954,0.4949,0.4963,0.4963,0.4963,0.4964,0.4964,0.4605,0.4621,0.465,0.4677,0.4698,0.4719,0.4737,0.4758,0.4781,0.4812,0.4825,0.4851,0.4877,0.4917,0.4934,0.4954,0.4957,0.4961,0.4962,0.4963,0.4961,0.4946,0.4959,0.4959,0.4959,0.4959,0.4959,0,0.4617,0.4636,0.466,0.4693,0.4713,0.4723,0.475,0.4765,0.4789,0.4813,0.4835,0.4864,0.4889,0.4914,0.494,0.4951,0.4957,0.4956,0.4956,0.4959,0.4957,0.4952,0.4951,0.4951,0.4951,0.4951,0.4951,0.4951,0.4625,0.4652,0.4666,0.4702,0.4721,0.4748,0.4762,0.4781,0.4799,0.4831,0.4852,0.4868,0.4892,0.4919,0.4941,0.4947,0.4956,0.4953,0.4961,0.4959,0.496,0.496,0.4955,0.4955,0.4955,0.4962,0.4962,0.4962]}]]